Weather in Daegu

South Korea     35°54′04″N   128°36′35″E
temp.,
°C
wind,
m/s
gust,
m/s
humid.,
%
clouds,
%
prec.,
mm/h
press.,
hPa
HPBL,
m
13 june, sun
sun1300:00+20ese1193100 0.1 101245
03:00+20ne009648 0.1 101122
06:00+20ene019457 0.1 101170
09:00+24sw0077100 0.1 1010525
12:00+29ese015833 0.3 10081206
15:00+29ese435773 0.7 10061373
18:00+26sse357445 0.9 1006478
21:00+22ese2191100 2.2 100738
14 june, mon
mon1400:00+21se1196100 0.1 100736
03:00+20se119718 0.1 100722
06:00+20se119780 0.0 100780
09:00+22sse128797 0.1 1007405
12:00+27sw016181 0.1 10061153
15:00+30ese224898 0.1 10041833
18:00+26ese366299 0.0 1003499
21:00+23se2478100 0.1 1005246
15 june, tue
tue1500:00+21se2386100 0.0 1006150
03:00+20se2386100 0.0 1005197
06:00+20s1187100 0.0 1005122
09:00+23sse2266100 0.0 1006640
12:00+27sse334881 0.0 10051509
15:00+24ssw246099 0.0 1005686
18:00+25se3463100 0.0 1005825
21:00+20ese23898 0.1 1007159
16 june, wed
wed1600:00+19e129211 0.0 100769
03:00+18ene119523 0.0 100852
06:00+19e129249 0.0 1008181
09:00+23e127177 0.0 1009796
12:00+28ese234965 0.0 10071668
15:00+27ese445299 0.0 10061259
18:00+24ese45638 0.0 1008739
21:00+19e25866 0.0 1010260
17 june, thu
thu1700:00+18e1390100 0.0 1009165
03:00+17ne1291100 0.0 1008115
06:00+17e1189100 0.0 1008125
09:00+21ese1271100 0.0 1008556
12:00+27sse234816 0.0 10061180
15:00+29sse2342100 0.0 10031662
18:00+27s2453100 0.0 1002848
21:00+21se247438 0.0 1004148